Year,Month,Day,Hour,Minute,Value (Times are PST for temperature in C)
2008,08,15,00,00,20.10
2008,08,15,00,01,20.10
2008,08,15,00,02,20.10
2008,08,15,00,03,20.10
2008,08,15,00,04,20.10
2008,08,15,00,05,20.10
2008,08,15,00,06,20.10
2008,08,15,00,07,20.10
2008,08,15,00,08,20.10
2008,08,15,00,09,20.10
2008,08,15,00,10,20.10
2008,08,15,00,11,20.10
2008,08,15,00,12,20.10
2008,08,15,00,13,20.10
2008,08,15,00,14,20.20
2008,08,15,00,15,20.10
2008,08,15,00,16,20.10
2008,08,15,00,17,20.10
2008,08,15,00,18,20.10
2008,08,15,00,19,20.10
2008,08,15,00,20,20.10
2008,08,15,00,21,20.10
2008,08,15,00,22,20.10
2008,08,15,00,23,20.10
2008,08,15,00,24,20.10
2008,08,15,00,25,20.10
2008,08,15,00,26,20.00
2008,08,15,00,27,19.90
2008,08,15,00,28,19.90
2008,08,15,00,29,19.90
2008,08,15,00,30,19.90
2008,08,15,00,31,19.80
2008,08,15,00,32,19.70
2008,08,15,00,33,19.70
2008,08,15,00,34,19.60
2008,08,15,00,35,19.60
2008,08,15,00,36,19.50
2008,08,15,00,37,19.50
2008,08,15,00,38,19.50
2008,08,15,00,39,19.40
2008,08,15,00,40,19.40
2008,08,15,00,41,19.40
2008,08,15,00,42,19.40
2008,08,15,00,43,19.40
2008,08,15,00,44,19.50
2008,08,15,00,45,19.50
2008,08,15,00,46,19.50
2008,08,15,00,47,19.50
2008,08,15,00,48,19.50
2008,08,15,00,49,19.60
2008,08,15,00,50,19.60
2008,08,15,00,51,19.60
2008,08,15,00,52,19.60
2008,08,15,00,53,19.60
2008,08,15,00,54,19.60
2008,08,15,00,55,19.60
2008,08,15,00,56,19.60
2008,08,15,00,57,19.60
2008,08,15,00,58,19.60
2008,08,15,00,59,19.60
2008,08,15,01,00,19.60
2008,08,15,01,01,19.60
2008,08,15,01,02,19.60
2008,08,15,01,03,19.60
2008,08,15,01,04,19.60
2008,08,15,01,05,19.60
2008,08,15,01,06,19.60
2008,08,15,01,07,19.60
2008,08,15,01,08,19.60
2008,08,15,01,09,19.50
2008,08,15,01,10,19.50
2008,08,15,01,11,19.50
2008,08,15,01,12,19.50
2008,08,15,01,13,19.40
2008,08,15,01,14,19.40
2008,08,15,01,15,19.40
2008,08,15,01,16,19.40
2008,08,15,01,17,19.40
2008,08,15,01,18,19.30
2008,08,15,01,19,19.30
2008,08,15,01,20,19.30
2008,08,15,01,21,19.30
2008,08,15,01,22,19.30
2008,08,15,01,23,19.30
2008,08,15,01,24,19.30
2008,08,15,01,25,19.30
2008,08,15,01,26,19.20
2008,08,15,01,27,19.20
2008,08,15,01,28,19.20
2008,08,15,01,29,19.20
2008,08,15,01,30,19.20
2008,08,15,01,31,19.20
2008,08,15,01,32,19.20
2008,08,15,01,33,19.20
2008,08,15,01,34,19.10
2008,08,15,01,35,19.10
2008,08,15,01,36,19.10
2008,08,15,01,37,19.10
2008,08,15,01,38,19.10
2008,08,15,01,39,19.10
2008,08,15,01,40,19.10
2008,08,15,01,41,19.10
2008,08,15,01,42,19.10
2008,08,15,01,43,19.10
2008,08,15,01,44,19.10
2008,08,15,01,45,19.10
2008,08,15,01,46,19.10
2008,08,15,01,47,19.10
2008,08,15,01,48,19.10
2008,08,15,01,49,19.10
2008,08,15,01,50,18.90
2008,08,15,01,51,18.90
2008,08,15,01,52,18.90
2008,08,15,01,53,18.90
2008,08,15,01,54,18.80
2008,08,15,01,55,18.80
2008,08,15,01,56,18.70
2008,08,15,01,57,18.70
2008,08,15,01,58,18.70
2008,08,15,01,59,18.60
2008,08,15,02,00,18.60
2008,08,15,02,01,18.60
2008,08,15,02,02,18.50
2008,08,15,02,03,18.50
2008,08,15,02,04,18.40
2008,08,15,02,05,18.40
2008,08,15,02,06,18.40
2008,08,15,02,07,18.50
2008,08,15,02,08,18.50
2008,08,15,02,09,18.50
2008,08,15,02,10,18.50
2008,08,15,02,11,18.50
2008,08,15,02,12,18.50
2008,08,15,02,13,18.50
2008,08,15,02,14,18.50
2008,08,15,02,15,18.50
2008,08,15,02,16,18.50
2008,08,15,02,17,18.50
2008,08,15,02,18,18.50
2008,08,15,02,19,18.50
2008,08,15,02,20,18.60
2008,08,15,02,21,18.60
2008,08,15,02,22,18.60
2008,08,15,02,23,18.60
2008,08,15,02,24,18.60
2008,08,15,02,25,18.60
2008,08,15,02,26,18.60
2008,08,15,02,27,18.60
2008,08,15,02,28,18.60
2008,08,15,02,29,18.60
2008,08,15,02,30,18.60
2008,08,15,02,31,18.60
2008,08,15,02,32,18.50
2008,08,15,02,33,18.50
2008,08,15,02,34,18.40
2008,08,15,02,35,18.40
2008,08,15,02,36,18.40
2008,08,15,02,37,18.40
2008,08,15,02,38,18.40
2008,08,15,02,39,18.40
2008,08,15,02,40,18.40
2008,08,15,02,41,18.40
2008,08,15,02,42,18.40
2008,08,15,02,43,18.40
2008,08,15,02,44,18.40
2008,08,15,02,45,18.40
2008,08,15,02,46,18.40
2008,08,15,02,47,18.40
2008,08,15,02,48,18.40
2008,08,15,02,49,18.40
2008,08,15,02,50,18.40
2008,08,15,02,51,18.40
2008,08,15,02,52,18.40
2008,08,15,02,53,18.40
2008,08,15,02,54,18.40
2008,08,15,02,55,18.40
2008,08,15,02,56,18.30
2008,08,15,02,57,18.30
2008,08,15,02,58,18.30
2008,08,15,02,59,18.20
2008,08,15,03,00,18.20
2008,08,15,03,01,18.20
2008,08,15,03,02,18.20
2008,08,15,03,03,18.20
2008,08,15,03,04,18.20
2008,08,15,03,05,18.20
2008,08,15,03,06,18.20
2008,08,15,03,07,18.20
2008,08,15,03,08,18.20
2008,08,15,03,09,18.20
2008,08,15,03,10,18.20
2008,08,15,03,11,18.20
2008,08,15,03,12,18.20
2008,08,15,03,13,18.20
2008,08,15,03,14,18.20
2008,08,15,03,15,18.20
2008,08,15,03,16,18.20
2008,08,15,03,17,18.20
2008,08,15,03,18,18.20
2008,08,15,03,19,18.20
2008,08,15,03,20,18.20
2008,08,15,03,21,18.20
2008,08,15,03,22,18.10
2008,08,15,03,23,18.10
2008,08,15,03,24,18.10
2008,08,15,03,25,18.10
2008,08,15,03,26,18.10
2008,08,15,03,27,18.00
2008,08,15,03,28,17.90
2008,08,15,03,29,17.90
2008,08,15,03,30,17.90
2008,08,15,03,31,17.90
2008,08,15,03,32,17.90
2008,08,15,03,33,17.90
2008,08,15,03,34,17.90
2008,08,15,03,35,17.90
2008,08,15,03,36,17.90
2008,08,15,03,37,17.90
2008,08,15,03,38,17.90
2008,08,15,03,39,17.90
2008,08,15,03,40,17.90
2008,08,15,03,41,17.90
2008,08,15,03,42,18.00
2008,08,15,03,43,18.10
2008,08,15,03,44,18.10
2008,08,15,03,45,18.10
2008,08,15,03,46,18.00
2008,08,15,03,47,17.90
2008,08,15,03,48,17.90
2008,08,15,03,49,17.90
2008,08,15,03,50,17.90
2008,08,15,03,51,17.90
2008,08,15,03,52,17.90
2008,08,15,03,53,17.90
2008,08,15,03,54,17.90
2008,08,15,03,55,17.80
2008,08,15,03,56,17.80
2008,08,15,03,57,17.80
2008,08,15,03,58,17.80
2008,08,15,03,59,17.80
2008,08,15,04,00,17.80
2008,08,15,04,01,17.80
2008,08,15,04,02,17.80
2008,08,15,04,03,17.80
2008,08,15,04,04,17.80
2008,08,15,04,05,17.80
2008,08,15,04,06,17.80
2008,08,15,04,07,17.80
2008,08,15,04,08,17.70
2008,08,15,04,09,17.70
2008,08,15,04,10,17.70
2008,08,15,04,11,17.60
2008,08,15,04,12,17.60
2008,08,15,04,13,17.50
2008,08,15,04,14,17.50
2008,08,15,04,15,17.50
2008,08,15,04,16,17.50
2008,08,15,04,17,17.60
2008,08,15,04,18,17.60
2008,08,15,04,19,17.60
2008,08,15,04,20,17.60
2008,08,15,04,21,17.60
2008,08,15,04,22,17.60
2008,08,15,04,23,17.60
2008,08,15,04,24,17.60
2008,08,15,04,25,17.60
2008,08,15,04,26,17.60
2008,08,15,04,27,17.60
2008,08,15,04,28,17.60
2008,08,15,04,29,17.60
2008,08,15,04,30,17.60
2008,08,15,04,31,17.60
2008,08,15,04,32,17.60
2008,08,15,04,33,17.50
2008,08,15,04,34,17.50
2008,08,15,04,35,17.50
2008,08,15,04,36,17.50
2008,08,15,04,37,17.40
2008,08,15,04,38,17.40
2008,08,15,04,39,17.40
2008,08,15,04,40,17.40
2008,08,15,04,41,17.40
2008,08,15,04,42,17.40
2008,08,15,04,43,17.30
2008,08,15,04,44,17.30
2008,08,15,04,45,17.30
2008,08,15,04,46,17.30
2008,08,15,04,47,17.30
2008,08,15,04,48,17.40
2008,08,15,04,49,17.40
2008,08,15,04,50,17.40
2008,08,15,04,51,17.40
2008,08,15,04,52,17.40
2008,08,15,04,53,17.40
2008,08,15,04,54,17.40
2008,08,15,04,55,17.40
2008,08,15,04,56,17.40
2008,08,15,04,57,17.40
2008,08,15,04,58,17.40
2008,08,15,04,59,17.30
2008,08,15,05,00,17.30
2008,08,15,05,01,17.30
2008,08,15,05,02,17.30
2008,08,15,05,03,17.30
2008,08,15,05,04,17.30
2008,08,15,05,05,17.30
2008,08,15,05,06,17.30
2008,08,15,05,07,17.20
2008,08,15,05,08,17.20
2008,08,15,05,09,17.20
2008,08,15,05,10,17.20
2008,08,15,05,11,17.20
2008,08,15,05,12,17.20
2008,08,15,05,13,17.20
2008,08,15,05,14,17.30
2008,08,15,05,15,17.20
2008,08,15,05,16,17.30
2008,08,15,05,17,17.30
2008,08,15,05,18,17.30
2008,08,15,05,19,17.30
2008,08,15,05,20,17.30
2008,08,15,05,21,17.30
2008,08,15,05,22,17.20
2008,08,15,05,23,17.20
2008,08,15,05,24,17.20
2008,08,15,05,25,17.20
2008,08,15,05,26,17.20
2008,08,15,05,27,17.20
2008,08,15,05,28,17.20
2008,08,15,05,29,17.30
2008,08,15,05,30,17.30
2008,08,15,05,31,17.30
2008,08,15,05,32,17.30
2008,08,15,05,33,17.30
2008,08,15,05,34,17.30
2008,08,15,05,35,17.30
2008,08,15,05,36,17.20
2008,08,15,05,37,17.20
2008,08,15,05,38,17.20
2008,08,15,05,39,17.20
2008,08,15,05,40,17.20
2008,08,15,05,41,17.20
2008,08,15,05,42,17.20
2008,08,15,05,43,17.20
2008,08,15,05,44,17.20
2008,08,15,05,45,17.20
2008,08,15,05,46,17.20
2008,08,15,05,47,17.10
2008,08,15,05,48,17.10
2008,08,15,05,49,17.10
2008,08,15,05,50,17.10
2008,08,15,05,51,17.10
2008,08,15,05,52,17.10
2008,08,15,05,53,17.10
2008,08,15,05,54,17.10
2008,08,15,05,55,17.00
2008,08,15,05,56,17.00
2008,08,15,05,57,17.00
2008,08,15,05,58,17.00
2008,08,15,05,59,17.10
2008,08,15,06,00,17.10
2008,08,15,06,01,17.10
2008,08,15,06,02,17.10
2008,08,15,06,03,17.10
2008,08,15,06,04,17.10
2008,08,15,06,05,17.10
2008,08,15,06,06,17.10
2008,08,15,06,07,17.10
2008,08,15,06,08,17.10
2008,08,15,06,09,17.10
2008,08,15,06,10,17.10
2008,08,15,06,11,17.10
2008,08,15,06,12,17.10
2008,08,15,06,13,17.10
2008,08,15,06,14,17.10
2008,08,15,06,15,17.00
2008,08,15,06,16,17.00
2008,08,15,06,17,17.00
2008,08,15,06,18,17.00
2008,08,15,06,19,17.00
2008,08,15,06,20,17.00
2008,08,15,06,21,17.00
2008,08,15,06,22,17.00
2008,08,15,06,23,17.10
2008,08,15,06,24,17.10
2008,08,15,06,25,17.10
2008,08,15,06,26,17.10
2008,08,15,06,27,17.20
2008,08,15,06,28,17.20
2008,08,15,06,29,17.20
2008,08,15,06,30,17.30
2008,08,15,06,31,17.30
2008,08,15,06,32,17.30
2008,08,15,06,33,17.30
2008,08,15,06,34,17.30
2008,08,15,06,35,17.30
2008,08,15,06,36,17.30
2008,08,15,06,37,17.30
2008,08,15,06,38,17.30
2008,08,15,06,39,17.30
2008,08,15,06,40,17.30
2008,08,15,06,41,17.30
2008,08,15,06,42,17.30
2008,08,15,06,43,17.30
2008,08,15,06,44,17.30
2008,08,15,06,45,17.30
2008,08,15,06,46,17.30
2008,08,15,06,47,17.30
2008,08,15,06,48,17.30
2008,08,15,06,49,17.30
2008,08,15,06,50,17.30
2008,08,15,06,51,17.30
2008,08,15,06,52,17.30
2008,08,15,06,53,17.30
2008,08,15,06,54,17.30
2008,08,15,06,55,17.30
2008,08,15,06,56,17.30
2008,08,15,06,57,17.30
2008,08,15,06,58,17.30
2008,08,15,06,59,17.30
2008,08,15,07,00,17.30
2008,08,15,07,01,17.30
2008,08,15,07,02,17.30
2008,08,15,07,03,17.30
2008,08,15,07,04,17.30
2008,08,15,07,05,17.30
2008,08,15,07,06,17.30
2008,08,15,07,07,17.30
2008,08,15,07,08,17.30
2008,08,15,07,09,17.40
2008,08,15,07,10,17.40
2008,08,15,07,11,17.40
2008,08,15,07,12,17.50
2008,08,15,07,13,17.50
2008,08,15,07,14,17.60
2008,08,15,07,15,17.60
2008,08,15,07,16,17.60
2008,08,15,07,17,17.60
2008,08,15,07,18,17.60
2008,08,15,07,19,17.60
2008,08,15,07,20,17.70
2008,08,15,07,21,17.70
2008,08,15,07,22,17.70
2008,08,15,07,23,17.70
2008,08,15,07,24,17.70
2008,08,15,07,25,17.70
2008,08,15,07,26,17.70
2008,08,15,07,27,17.70
2008,08,15,07,28,17.70
2008,08,15,07,29,17.80
2008,08,15,07,30,17.80
2008,08,15,07,31,17.80
2008,08,15,07,32,17.80
2008,08,15,07,33,17.90
2008,08,15,07,34,17.90
2008,08,15,07,35,17.90
2008,08,15,07,36,17.90
2008,08,15,07,37,17.90
2008,08,15,07,38,17.90
2008,08,15,07,39,17.90
2008,08,15,07,40,17.90
2008,08,15,07,41,17.90
2008,08,15,07,42,18.00
2008,08,15,07,43,18.10
2008,08,15,07,44,18.10
2008,08,15,07,45,18.10
2008,08,15,07,46,18.10
2008,08,15,07,47,18.10
2008,08,15,07,48,18.10
2008,08,15,07,49,18.20
2008,08,15,07,50,18.20
2008,08,15,07,51,18.20
2008,08,15,07,52,18.20
2008,08,15,07,53,18.20
2008,08,15,07,54,18.20
2008,08,15,07,55,18.30
2008,08,15,07,56,18.30
2008,08,15,07,57,18.30
2008,08,15,07,58,18.30
2008,08,15,07,59,18.30
2008,08,15,08,00,18.30
2008,08,15,08,01,18.40
2008,08,15,08,02,18.60
2008,08,15,08,03,18.60
2008,08,15,08,04,18.70
2008,08,15,08,05,18.70
2008,08,15,08,06,18.70
2008,08,15,08,07,18.80
2008,08,15,08,08,18.90
2008,08,15,08,09,18.90
2008,08,15,08,10,19.10
2008,08,15,08,11,19.10
2008,08,15,08,12,19.10
2008,08,15,08,13,19.20
2008,08,15,08,14,19.20
2008,08,15,08,15,19.30
2008,08,15,08,16,19.30
2008,08,15,08,17,19.40
2008,08,15,08,18,19.40
2008,08,15,08,19,19.40
2008,08,15,08,20,19.40
2008,08,15,08,21,19.40
2008,08,15,08,22,19.50
2008,08,15,08,23,19.50
2008,08,15,08,24,19.50
2008,08,15,08,25,19.50
2008,08,15,08,26,19.60
2008,08,15,08,27,19.60
2008,08,15,08,28,19.60
2008,08,15,08,29,19.60
2008,08,15,08,30,19.60
2008,08,15,08,31,19.70
2008,08,15,08,32,19.70
2008,08,15,08,33,19.70
2008,08,15,08,34,19.80
2008,08,15,08,35,19.90
2008,08,15,08,36,19.90
2008,08,15,08,37,19.90
2008,08,15,08,38,20.10
2008,08,15,08,39,20.10
2008,08,15,08,40,20.20
2008,08,15,08,41,20.20
2008,08,15,08,42,20.20
2008,08,15,08,43,20.30
2008,08,15,08,44,20.30
2008,08,15,08,45,20.40
2008,08,15,08,46,20.40
2008,08,15,08,47,20.50
2008,08,15,08,48,20.50
2008,08,15,08,49,20.60
2008,08,15,08,50,20.60
2008,08,15,08,51,20.60
2008,08,15,08,52,20.60
2008,08,15,08,53,20.70
2008,08,15,08,54,20.80
2008,08,15,08,55,20.80
2008,08,15,08,56,20.80
2008,08,15,08,57,20.90
2008,08,15,08,58,20.90
2008,08,15,08,59,21.00
2008,08,15,09,00,21.00
2008,08,15,09,01,21.10
2008,08,15,09,02,21.20
2008,08,15,09,03,21.30
2008,08,15,09,04,21.30
2008,08,15,09,05,21.40
2008,08,15,09,06,21.50
2008,08,15,09,07,21.60
2008,08,15,09,08,21.70
2008,08,15,09,09,21.80
2008,08,15,09,10,21.90
2008,08,15,09,11,22.00
2008,08,15,09,12,22.10
2008,08,15,09,13,22.20
2008,08,15,09,14,22.30
2008,08,15,09,15,22.30
2008,08,15,09,16,22.30
2008,08,15,09,17,22.30
2008,08,15,09,18,22.30
2008,08,15,09,19,22.40
2008,08,15,09,20,22.50
2008,08,15,09,21,22.50
2008,08,15,09,22,22.50
2008,08,15,09,23,22.70
2008,08,15,09,24,22.70
2008,08,15,09,25,22.80
2008,08,15,09,26,22.80
2008,08,15,09,27,22.80
2008,08,15,09,28,22.80
2008,08,15,09,29,22.90
2008,08,15,09,30,22.90
2008,08,15,09,31,22.90
2008,08,15,09,32,22.90
2008,08,15,09,33,22.90
2008,08,15,09,34,22.90
2008,08,15,09,35,22.90
2008,08,15,09,36,23.00
2008,08,15,09,37,23.10
2008,08,15,09,38,23.10
2008,08,15,09,39,23.20
2008,08,15,09,40,23.30
2008,08,15,09,41,23.30
2008,08,15,09,42,23.40
2008,08,15,09,43,23.50
2008,08,15,09,44,23.60
2008,08,15,09,45,23.60
2008,08,15,09,46,23.70
2008,08,15,09,47,23.70
2008,08,15,09,48,23.80
2008,08,15,09,49,23.80
2008,08,15,09,50,23.90
2008,08,15,09,51,24.00
2008,08,15,09,52,24.10
2008,08,15,09,53,24.10
2008,08,15,09,54,24.10
2008,08,15,09,55,24.10
2008,08,15,09,56,24.10
2008,08,15,09,57,24.10
2008,08,15,09,58,23.90
2008,08,15,09,59,23.80
2008,08,15,10,00,23.70
2008,08,15,10,01,23.70
2008,08,15,10,02,23.70
2008,08,15,10,03,23.70
2008,08,15,10,04,23.70
2008,08,15,10,05,23.70
2008,08,15,10,06,23.70
2008,08,15,10,07,23.70
2008,08,15,10,08,23.70
2008,08,15,10,09,23.60
2008,08,15,10,10,23.70
2008,08,15,10,11,23.70
2008,08,15,10,12,23.70
2008,08,15,10,13,23.80
2008,08,15,10,14,23.80
2008,08,15,10,15,23.80
2008,08,15,10,16,23.80
2008,08,15,10,17,23.80
2008,08,15,10,18,23.80
2008,08,15,10,19,23.80
2008,08,15,10,20,23.90
2008,08,15,10,21,23.90
2008,08,15,10,22,23.90
2008,08,15,10,23,23.90
2008,08,15,10,24,24.00
2008,08,15,10,25,24.10
2008,08,15,10,26,24.10
2008,08,15,10,27,24.10
2008,08,15,10,28,24.10
2008,08,15,10,29,24.10
2008,08,15,10,30,24.10
2008,08,15,10,31,24.10
2008,08,15,10,32,24.20
2008,08,15,10,33,24.30
2008,08,15,10,34,24.50
2008,08,15,10,35,24.50
2008,08,15,10,36,24.70
2008,08,15,10,37,24.80
2008,08,15,10,38,24.90
2008,08,15,10,39,25.00
2008,08,15,10,40,25.10
2008,08,15,10,41,25.10
2008,08,15,10,42,25.20
2008,08,15,10,43,25.20
2008,08,15,10,44,25.30
2008,08,15,10,45,25.40
2008,08,15,10,46,25.40
2008,08,15,10,47,25.50
2008,08,15,10,48,25.60
2008,08,15,10,49,25.70
2008,08,15,10,50,25.70
2008,08,15,10,51,25.80
2008,08,15,10,52,25.90
2008,08,15,10,53,26.00
2008,08,15,10,54,26.10
2008,08,15,10,55,26.10
2008,08,15,10,56,26.10
2008,08,15,10,57,26.10
2008,08,15,10,58,26.10
2008,08,15,10,59,26.00
2008,08,15,11,00,26.00
2008,08,15,11,01,26.00
2008,08,15,11,02,26.00
2008,08,15,11,03,26.00
2008,08,15,11,04,26.00
2008,08,15,11,05,26.00
2008,08,15,11,06,26.00
2008,08,15,11,07,25.70
2008,08,15,11,08,25.70
2008,08,15,11,09,25.70
2008,08,15,11,10,25.60
2008,08,15,11,11,25.60
2008,08,15,11,12,25.60
2008,08,15,11,13,25.50
2008,08,15,11,14,25.40
2008,08,15,11,15,25.50
2008,08,15,11,16,25.50
2008,08,15,11,17,25.50
2008,08,15,11,18,25.50
2008,08,15,11,19,25.50
2008,08,15,11,20,25.60
2008,08,15,11,21,25.70
2008,08,15,11,22,25.80
2008,08,15,11,23,25.90
2008,08,15,11,24,26.10
2008,08,15,11,25,26.20
2008,08,15,11,26,26.20
2008,08,15,11,27,26.20
2008,08,15,11,28,26.20
2008,08,15,11,29,26.10
2008,08,15,11,30,26.10
2008,08,15,11,31,26.20
2008,08,15,11,32,26.20
2008,08,15,11,33,26.20
2008,08,15,11,34,26.20
2008,08,15,11,35,26.40
2008,08,15,11,36,26.40
2008,08,15,11,37,26.10
2008,08,15,11,38,25.90
2008,08,15,11,39,25.70
2008,08,15,11,40,25.70
2008,08,15,11,41,25.70
2008,08,15,11,42,25.70
2008,08,15,11,43,25.70
2008,08,15,11,44,25.80
2008,08,15,11,45,25.80
2008,08,15,11,46,26.00
2008,08,15,11,47,26.10
2008,08,15,11,48,26.30
2008,08,15,11,49,26.50
2008,08,15,11,50,26.60
2008,08,15,11,51,26.60
2008,08,15,11,52,26.60
2008,08,15,11,53,26.70
2008,08,15,11,54,26.80
2008,08,15,11,55,26.90
2008,08,15,11,56,26.90
2008,08,15,11,57,26.90
2008,08,15,11,58,26.80
2008,08,15,11,59,26.80
2008,08,15,12,00,26.80
2008,08,15,12,01,26.70
2008,08,15,12,02,26.70
2008,08,15,12,03,26.70
2008,08,15,12,04,26.80
2008,08,15,12,05,26.80
2008,08,15,12,06,26.90
2008,08,15,12,07,26.90
2008,08,15,12,08,26.90
2008,08,15,12,09,27.00
2008,08,15,12,10,27.00
2008,08,15,12,11,27.10
2008,08,15,12,12,26.90
2008,08,15,12,13,26.90
2008,08,15,12,14,26.90
2008,08,15,12,15,26.90
2008,08,15,12,16,26.80
2008,08,15,12,17,26.80
2008,08,15,12,18,26.80
2008,08,15,12,19,26.90
2008,08,15,12,20,27.00
2008,08,15,12,21,27.10
2008,08,15,12,22,27.10
2008,08,15,12,23,27.10
2008,08,15,12,24,27.10
2008,08,15,12,25,27.10
2008,08,15,12,26,27.10
2008,08,15,12,27,27.10
2008,08,15,12,28,27.00
2008,08,15,12,29,26.90
2008,08,15,12,30,26.80
2008,08,15,12,31,26.70
2008,08,15,12,32,26.60
2008,08,15,12,33,26.40
2008,08,15,12,34,26.30
2008,08,15,12,35,26.10
2008,08,15,12,36,26.00
2008,08,15,12,37,25.90
2008,08,15,12,38,25.60
2008,08,15,12,39,25.40
2008,08,15,12,40,25.40
2008,08,15,12,41,25.30
2008,08,15,12,42,25.20
2008,08,15,12,43,25.00
2008,08,15,12,44,24.90
2008,08,15,12,45,24.90
2008,08,15,12,46,24.90
2008,08,15,12,47,24.90
2008,08,15,12,48,24.90
2008,08,15,12,49,24.90
2008,08,15,12,50,24.80
2008,08,15,12,51,24.60
2008,08,15,12,52,24.50
2008,08,15,12,53,24.40
2008,08,15,12,54,24.20
2008,08,15,12,55,24.20
2008,08,15,12,56,24.20
2008,08,15,12,57,24.20
2008,08,15,12,58,24.10
2008,08,15,12,59,23.90
2008,08,15,13,00,23.80
2008,08,15,13,01,23.70
2008,08,15,13,02,23.70
2008,08,15,13,03,23.70
2008,08,15,13,04,23.70
2008,08,15,13,05,23.70
2008,08,15,13,06,23.70
2008,08,15,13,07,23.70
2008,08,15,13,08,23.60
2008,08,15,13,09,23.60
2008,08,15,13,10,23.60
2008,08,15,13,11,23.50
2008,08,15,13,12,23.40
2008,08,15,13,13,23.40
2008,08,15,13,14,23.30
2008,08,15,13,15,23.30
2008,08,15,13,16,23.30
2008,08,15,13,17,23.30
2008,08,15,13,18,23.30
2008,08,15,13,19,23.30
2008,08,15,13,20,23.30
2008,08,15,13,21,23.40
2008,08,15,13,22,23.40
2008,08,15,13,23,23.50
2008,08,15,13,24,23.60
2008,08,15,13,25,23.60
2008,08,15,13,26,23.70
2008,08,15,13,27,23.70
2008,08,15,13,28,23.70
2008,08,15,13,29,23.70
2008,08,15,13,30,23.70
2008,08,15,13,31,23.70
2008,08,15,13,32,23.70
2008,08,15,13,33,23.70
2008,08,15,13,34,23.80
2008,08,15,13,35,23.80
2008,08,15,13,36,23.80
2008,08,15,13,37,23.80
2008,08,15,13,38,23.80
2008,08,15,13,39,23.90
2008,08,15,13,40,24.00
2008,08,15,13,41,24.10
2008,08,15,13,42,24.10
2008,08,15,13,43,24.10
2008,08,15,13,44,24.20
2008,08,15,13,45,24.30
2008,08,15,13,46,24.40
2008,08,15,13,47,24.50
2008,08,15,13,48,24.60
2008,08,15,13,49,24.60
2008,08,15,13,50,24.70
2008,08,15,13,51,24.70
2008,08,15,13,52,24.80
2008,08,15,13,53,24.90
2008,08,15,13,54,25.00
2008,08,15,13,55,25.10
2008,08,15,13,56,25.20
2008,08,15,13,57,25.30
2008,08,15,13,58,25.30
2008,08,15,13,59,25.30
2008,08,15,14,00,25.30
2008,08,15,14,01,25.20
2008,08,15,14,02,25.10
2008,08,15,14,03,25.00
2008,08,15,14,04,25.00
2008,08,15,14,05,25.00
2008,08,15,14,06,25.10
2008,08,15,14,07,25.10
2008,08,15,14,08,25.30
2008,08,15,14,09,25.30
2008,08,15,14,10,25.40
2008,08,15,14,11,25.40
2008,08,15,14,12,25.50
2008,08,15,14,13,25.50
2008,08,15,14,14,25.50
2008,08,15,14,15,25.50
2008,08,15,14,16,25.40
2008,08,15,14,17,25.40
2008,08,15,14,18,25.30
2008,08,15,14,19,25.10
2008,08,15,14,20,25.00
2008,08,15,14,21,24.90
2008,08,15,14,22,24.80
2008,08,15,14,23,24.80
2008,08,15,14,24,24.80
2008,08,15,14,25,24.80
2008,08,15,14,26,24.80
2008,08,15,14,27,24.90
2008,08,15,14,28,24.90
2008,08,15,14,29,24.90
2008,08,15,14,30,25.00
2008,08,15,14,31,24.90
2008,08,15,14,32,24.90
2008,08,15,14,33,24.90
2008,08,15,14,34,24.90
2008,08,15,14,35,24.80
2008,08,15,14,36,24.80
2008,08,15,14,37,24.80
2008,08,15,14,38,24.70
2008,08,15,14,39,24.70
2008,08,15,14,40,24.70
2008,08,15,14,41,24.80
2008,08,15,14,42,24.80
2008,08,15,14,43,24.80
2008,08,15,14,44,24.80
2008,08,15,14,45,24.80
2008,08,15,14,46,24.60
2008,08,15,14,47,24.50
2008,08,15,14,48,24.40
2008,08,15,14,49,24.20
2008,08,15,14,50,24.30
2008,08,15,14,51,24.30
2008,08,15,14,52,24.20
2008,08,15,14,53,24.10
2008,08,15,14,54,24.00
2008,08,15,14,55,23.90
2008,08,15,14,56,23.70
2008,08,15,14,57,23.70
2008,08,15,14,58,23.60
2008,08,15,14,59,23.60
2008,08,15,15,00,23.60
2008,08,15,15,01,23.60
2008,08,15,15,02,23.70
2008,08,15,15,03,23.70
2008,08,15,15,04,23.70
2008,08,15,15,05,23.80
2008,08,15,15,06,23.80
2008,08,15,15,07,23.80
2008,08,15,15,08,23.70
2008,08,15,15,09,23.70
2008,08,15,15,10,23.70
2008,08,15,15,11,23.70
2008,08,15,15,12,23.70
2008,08,15,15,13,23.70
2008,08,15,15,14,23.70
2008,08,15,15,15,23.80
2008,08,15,15,16,23.80
2008,08,15,15,17,23.90
2008,08,15,15,18,24.00
2008,08,15,15,19,24.10
2008,08,15,15,20,24.10
2008,08,15,15,21,24.10
2008,08,15,15,22,24.10
2008,08,15,15,23,24.10
2008,08,15,15,24,24.20
2008,08,15,15,25,24.30
2008,08,15,15,26,24.30
2008,08,15,15,27,24.40
2008,08,15,15,28,24.40
2008,08,15,15,29,24.40
2008,08,15,15,30,24.40
2008,08,15,15,31,24.40
2008,08,15,15,32,24.40
2008,08,15,15,33,24.50
2008,08,15,15,34,24.50
2008,08,15,15,35,24.60
2008,08,15,15,36,24.70
2008,08,15,15,37,24.90
2008,08,15,15,38,25.00
2008,08,15,15,39,25.10
2008,08,15,15,40,25.10
2008,08,15,15,41,25.10
2008,08,15,15,42,25.10
2008,08,15,15,43,25.10
2008,08,15,15,44,25.00
2008,08,15,15,45,24.90
2008,08,15,15,46,25.00
2008,08,15,15,47,25.10
2008,08,15,15,48,25.10
2008,08,15,15,49,25.20
2008,08,15,15,50,25.30
2008,08,15,15,51,25.40
2008,08,15,15,52,25.50
2008,08,15,15,53,25.70
2008,08,15,15,54,25.80
2008,08,15,15,55,26.00
2008,08,15,15,56,26.30
2008,08,15,15,57,26.40
2008,08,15,15,58,26.40
2008,08,15,15,59,26.30
2008,08,15,16,00,26.30
2008,08,15,16,01,26.30
2008,08,15,16,02,26.30
2008,08,15,16,03,26.30
2008,08,15,16,04,26.60
2008,08,15,16,05,26.60
2008,08,15,16,06,26.70
2008,08,15,16,07,26.80
2008,08,15,16,08,26.90
2008,08,15,16,09,26.90
2008,08,15,16,10,27.10
2008,08,15,16,11,27.10
2008,08,15,16,12,27.20
2008,08,15,16,13,27.30
2008,08,15,16,14,27.30
2008,08,15,16,15,27.30
2008,08,15,16,16,27.30
2008,08,15,16,17,27.30
2008,08,15,16,18,27.30
2008,08,15,16,19,27.40
2008,08,15,16,20,27.40
2008,08,15,16,21,27.40
2008,08,15,16,22,27.40
2008,08,15,16,23,27.40
2008,08,15,16,24,27.40
2008,08,15,16,25,27.40
2008,08,15,16,26,27.40
2008,08,15,16,27,27.30
2008,08,15,16,28,27.30
2008,08,15,16,29,27.30
2008,08,15,16,30,27.30
2008,08,15,16,31,27.30
2008,08,15,16,32,27.30
2008,08,15,16,33,27.40
2008,08,15,16,34,27.50
2008,08,15,16,35,27.60
2008,08,15,16,36,27.80
2008,08,15,16,37,27.90
2008,08,15,16,38,28.00
2008,08,15,16,39,28.10
2008,08,15,16,40,28.10
2008,08,15,16,41,28.10
2008,08,15,16,42,28.10
2008,08,15,16,43,28.10
2008,08,15,16,44,28.10
2008,08,15,16,45,28.10
2008,08,15,16,46,28.10
2008,08,15,16,47,28.10
2008,08,15,16,48,28.10
2008,08,15,16,49,28.10
2008,08,15,16,50,28.10
2008,08,15,16,51,28.00
2008,08,15,16,52,27.90
2008,08,15,16,53,27.80
2008,08,15,16,54,27.70
2008,08,15,16,55,27.30
2008,08,15,16,56,27.20
2008,08,15,16,57,27.10
2008,08,15,16,58,26.80
2008,08,15,16,59,26.50
2008,08,15,17,00,26.30
2008,08,15,17,01,26.00
2008,08,15,17,02,25.80
2008,08,15,17,03,25.50
2008,08,15,17,04,25.40
2008,08,15,17,05,25.20
2008,08,15,17,06,25.10
2008,08,15,17,07,25.00
2008,08,15,17,08,24.90
2008,08,15,17,09,24.90
2008,08,15,17,10,25.00
2008,08,15,17,11,25.10
2008,08,15,17,12,25.10
2008,08,15,17,13,25.20
2008,08,15,17,14,25.30
2008,08,15,17,15,25.40
2008,08,15,17,16,25.40
2008,08,15,17,17,25.60
2008,08,15,17,18,25.70
2008,08,15,17,19,25.80